TimeCDT,TemperatureF,Dew PointF,Humidity,Sea Level PressureIn,VisibilityMPH,Wind Direction,Wind SpeedMPH,Gust SpeedMPH,PrecipitationIn,Events,Conditions,WindDirDegrees,DateUTC
12:53 AM,53.1,52.0,96,29.65,4.0,NW,11.5,-,N/A,,Overcast,310,2013-10-31 05:53:00
1:53 AM,50.0,48.9,96,29.65,5.0,WNW,12.7,-,N/A,,Overcast,300,2013-10-31 06:53:00
2:51 AM,46.4,44.6,93,29.64,4.0,NW,13.8,-,0.02,,Overcast,310,2013-10-31 07:51:00
2:53 AM,46.0,45.0,96,29.63,4.0,NW,15.0,-,0.02,,Overcast,310,2013-10-31 07:53:00
3:10 AM,46.0,45.0,96,29.64,5.0,WNW,9.2,-,N/A,,Overcast,300,2013-10-31 08:10:00
3:53 AM,46.0,44.1,93,29.63,9.0,NW,11.5,-,N/A,,Overcast,310,2013-10-31 08:53:00
4:53 AM,45.0,43.0,93,29.64,9.0,WNW,8.1,-,N/A,,Overcast,290,2013-10-31 09:53:00
5:53 AM,44.1,42.1,93,29.62,10.0,NW,13.8,-,N/A,,Overcast,310,2013-10-31 10:53:00
6:53 AM,42.1,39.9,92,29.61,7.0,NW,13.8,-,N/A,,Overcast,310,2013-10-31 11:53:00
7:53 AM,41.0,39.0,93,29.62,8.0,West,5.8,-,N/A,,Mostly Cloudy,280,2013-10-31 12:53:00
8:05 AM,41.0,39.0,93,29.62,7.0,West,10.4,-,N/A,,Scattered Clouds,280,2013-10-31 13:05:00
8:12 AM,41.0,39.0,93,29.61,7.0,West,6.9,-,N/A,,Mostly Cloudy,280,2013-10-31 13:12:00
8:28 AM,41.0,39.0,93,29.60,7.0,NW,9.2,-,N/A,,Scattered Clouds,310,2013-10-31 13:28:00
8:53 AM,41.0,39.0,93,29.61,7.0,WNW,9.2,-,N/A,,Clear,300,2013-10-31 13:53:00
9:13 AM,41.0,37.9,89,29.62,8.0,WNW,9.2,-,N/A,,Partly Cloudy,300,2013-10-31 14:13:00
9:53 AM,42.1,37.9,85,29.61,9.0,WNW,11.5,-,N/A,,Mostly Cloudy,300,2013-10-31 14:53:00
10:49 AM,42.8,37.4,81,29.59,10.0,WNW,9.2,-,N/A,,Mostly Cloudy,300,2013-10-31 15:49:00
10:53 AM,42.1,37.9,85,29.59,10.0,NW,11.5,-,N/A,,Mostly Cloudy,310,2013-10-31 15:53:00
11:53 AM,42.1,37.9,85,29.58,10.0,WNW,10.4,-,N/A,,Overcast,290,2013-10-31 16:53:00
12:26 PM,42.1,37.9,85,29.56,10.0,WNW,11.5,-,N/A,,Mostly Cloudy,300,2013-10-31 17:26:00
12:53 PM,43.0,39.0,86,29.55,10.0,WNW,9.2,-,N/A,,Mostly Cloudy,300,2013-10-31 17:53:00
1:00 PM,44.1,37.9,79,29.54,10.0,WNW,12.7,-,N/A,,Mostly Cloudy,290,2013-10-31 18:00:00
1:53 PM,44.1,37.9,79,29.49,10.0,WNW,9.2,-,N/A,,Mostly Cloudy,300,2013-10-31 18:53:00
2:31 PM,46.0,39.0,76,29.47,10.0,NW,13.8,-,N/A,,Mostly Cloudy,310,2013-10-31 19:31:00
2:53 PM,46.0,39.9,79,29.47,10.0,NW,13.8,-,N/A,,Mostly Cloudy,310,2013-10-31 19:53:00
3:53 PM,46.0,39.0,76,29.47,10.0,WNW,11.5,-,N/A,,Mostly Cloudy,290,2013-10-31 20:53:00
4:19 PM,46.0,39.0,76,29.46,9.0,WNW,12.7,-,N/A,,Scattered Clouds,290,2013-10-31 21:19:00
4:53 PM,46.9,39.9,77,29.47,9.0,WNW,8.1,-,N/A,,Mostly Cloudy,290,2013-10-31 21:53:00
5:53 PM,46.9,39.9,77,29.47,8.0,West,8.1,-,N/A,,Clear,270,2013-10-31 22:53:00
6:53 PM,43.0,41.0,93,29.48,8.0,WSW,3.5,-,N/A,,Scattered Clouds,240,2013-10-31 23:53:00
7:53 PM,45.0,39.0,80,29.49,10.0,NW,10.4,-,N/A,,Partly Cloudy,320,2013-11-01 00:53:00
8:53 PM,44.1,39.9,85,29.49,10.0,NW,5.8,-,N/A,,Overcast,310,2013-11-01 01:53:00
9:53 PM,44.1,37.0,76,29.50,10.0,NW,10.4,-,N/A,,Overcast,310,2013-11-01 02:53:00
10:53 PM,43.0,37.9,82,29.51,10.0,West,5.8,-,N/A,,Overcast,280,2013-11-01 03:53:00
11:53 PM,43.0,39.0,86,29.52,10.0,WSW,4.6,-,N/A,,Overcast,250,2013-11-01 04:53:00